Location: *
(51.1248°S, 108.4023°W)
Time: 21:21:44
(UTC+00:00)

Cosmos 2278 Rocket - Pass Details

Date: 27 October 2021
Orbit: 841 x 845 km, 71.0° (Epoch: 30 November)

Event Time Altitude Azimuth Distance (km) Brightness Sun altitude
Rises 10:59:28 0° 223° (SW) 3,436 5.2 -7.3°
Reaches altitude 10° 11:05:04 10° 179° (S) 2,501 5.1 -6.5°
Maximum altitude 11:05:38 10° 174° (S) 2,491 5.2 -6.5°
Drops below altitude 10° 11:06:13 10° 168° (SSE) 2,500 5.3 -6.4°
Sets 11:11:48 0° 124° (SE) 3,434 8.1 -5.6°
